[Date Prev][Date Next][Thread Prev][Thread Next] - [Date Index][Thread Index][Author Index]
2 Line ISS Keps 10-5
- Subject: [sarex] 2 Line ISS Keps 10-5
- From: "Dave Larsen PhD" <doc@xxxxxxxxxxx>
- Date: Fri, 5 Oct 2001 03:16:34 -0700
ISS
1 25544U 98067A 01278.25278935 .00067489 00000-0 77982-3 0 5546
2 25544 51.6388 254.9072 0007423 165.5637 35.3529 15.61224039164259
----
Via the sarex mailing list at AMSAT.ORG courtesy of AMSAT-NA.
To unsubscribe, send "unsubscribe sarex" to Majordomo@amsat.org
AMSAT Home